Wetterdaten: Dienstag, 23.08.2011
Datum Zeit Temp. Auen Feucht Auen Luftdruck Regen Richtung Richtung Windben
23.08.2011 00:00 19,1 C 99 % 1084,4 hPa 0,0 mm SO 135 2,5 km/h (1 Bft)
23.08.2011 00:05 19,1 C 99 % 1084,6 hPa 0,0 mm SO 135 1,1 km/h (1 Bft)
23.08.2011 00:10 19,1 C 99 % 1084,7 hPa 0,0 mm W 270 3,6 km/h (1 Bft)
23.08.2011 00:15 19,1 C 99 % 1084,9 hPa 0,0 mm W 270 3,6 km/h (1 Bft)
23.08.2011 00:20 19,1 C 99 % 1084,9 hPa 0,0 mm W 260 6,1 km/h (2 Bft)
23.08.2011 00:25 19,1 C 99 % 1084,9 hPa 0,0 mm S-SW 200 6,1 km/h (2 Bft)
23.08.2011 00:30 19,3 C 99 % 1084,9 hPa 0,0 mm S-SW 204 6,1 km/h (2 Bft)
23.08.2011 00:35 19,6 C 99 % 1085,2 hPa 0,0 mm W-SW 241 7,2 km/h (2 Bft)
23.08.2011 00:40 19,8 C 99 % 1084,9 hPa 0,0 mm S-SW 206 7,2 km/h (2 Bft)
23.08.2011 00:45 19,8 C 99 % 1084,9 hPa 0,0 mm O-SO 111 6,1 km/h (2 Bft)
23.08.2011 00:50 19,8 C 99 % 1084,9 hPa 0,0 mm SO 125 3,6 km/h (1 Bft)
23.08.2011 00:55 19,9 C 99 % 1085,0 hPa 0,0 mm W-NW 282 3,6 km/h (1 Bft)
23.08.2011 01:00 19,9 C 99 % 1084,9 hPa 0,0 mm W 270 3,6 km/h (1 Bft)
23.08.2011 01:05 19,9 C 99 % 1084,9 hPa 0,0 mm W 270 3,6 km/h (1 Bft)
23.08.2011 01:10 19,9 C 99 % 1084,8 hPa 0,0 mm W 270 3,6 km/h (1 Bft)
23.08.2011 01:15 19,7 C 99 % 1084,7 hPa 0,0 mm SW 221 6,1 km/h (2 Bft)
23.08.2011 01:20 19,5 C 99 % 1085,0 hPa 0,0 mm O-SO 122 6,1 km/h (2 Bft)
23.08.2011 01:25 19,3 C 99 % 1084,9 hPa 0,0 mm SO 125 5,0 km/h (1 Bft)
23.08.2011 01:30 19,3 C 99 % 1085,0 hPa 0,0 mm SO 136 5,0 km/h (1 Bft)
23.08.2011 01:35 19,2 C 99 % 1084,9 hPa 0,0 mm SO 140 5,0 km/h (1 Bft)
23.08.2011 01:40 18,9 C 99 % 1084,7 hPa 0,0 mm O-SO 118 2,5 km/h (1 Bft)
23.08.2011 01:45 18,8 C 99 % 1084,9 hPa 0,0 mm O 90 1,1 km/h (1 Bft)
23.08.2011 01:50 18,7 C 99 % 1084,8 hPa 0,0 mm N 0 0,0 km/h (0 Bft)
23.08.2011 01:55 18,6 C 99 % 1084,8 hPa 0,0 mm O 90 1,1 km/h (1 Bft)
23.08.2011 02:00 18,6 C 99 % 1084,8 hPa 0,0 mm O 90 1,1 km/h (1 Bft)
23.08.2011 02:05 18,6 C 99 % 1084,6 hPa 0,0 mm N 0 0,0 km/h (0 Bft)
23.08.2011 02:10 18,4 C 99 % 1084,6 hPa 0,0 mm S 181 3,6 km/h (1 Bft)
23.08.2011 02:15 18,4 C 99 % 1084,6 hPa 0,0 mm S-SO 149 3,6 km/h (1 Bft)
23.08.2011 02:20 18,2 C 99 % 1084,6 hPa 0,0 mm O-SO 123 3,6 km/h (1 Bft)
23.08.2011 02:25 18,1 C 99 % 1084,5 hPa 0,0 mm O-SO 110 3,6 km/h (1 Bft)
23.08.2011 02:30 18,0 C 99 % 1084,7 hPa 0,0 mm S 191 3,6 km/h (1 Bft)
23.08.2011 02:35 17,9 C 99 % 1084,8 hPa 0,0 mm W 270 3,6 km/h (1 Bft)
23.08.2011 02:40 17,9 C 99 % 1084,5 hPa 0,0 mm W 270 1,1 km/h (1 Bft)
23.08.2011 02:45 17,8 C 99 % 1084,7 hPa 0,0 mm N 0 0,0 km/h (0 Bft)
23.08.2011 02:50 17,7 C 99 % 1084,6 hPa 0,0 mm N 0 0,0 km/h (0 Bft)
23.08.2011 02:55 17,6 C 99 % 1084,7 hPa 0,0 mm W 270 1,1 km/h (1 Bft)
23.08.2011 03:00 17,5 C 99 % 1084,6 hPa 0,0 mm W 270 1,1 km/h (1 Bft)
23.08.2011 03:05 17,5 C 99 % 1084,5 hPa 0,0 mm N 0 0,0 km/h (0 Bft)
23.08.2011 03:10 17,4 C 99 % 1084,7 hPa 0,0 mm W 270 1,1 km/h (1 Bft)
23.08.2011 03:15 17,3 C 99 % 1084,7 hPa 0,0 mm W 270 1,1 km/h (1 Bft)
23.08.2011 03:20 17,3 C 99 % 1084,6 hPa 0,0 mm W 270 2,5 km/h (1 Bft)
23.08.2011 03:25 17,3 C 99 % 1084,6 hPa 0,0 mm W 270 3,6 km/h (1 Bft)
23.08.2011 03:30 17,2 C 99 % 1084,6 hPa 0,0 mm W 270 3,6 km/h (1 Bft)
23.08.2011 03:35 17,1 C 99 % 1084,6 hPa 0,0 mm W 270 1,1 km/h (1 Bft)
23.08.2011 03:40 17,1 C 99 % 1084,6 hPa 0,0 mm W 270 1,1 km/h (1 Bft)
23.08.2011 03:45 17,0 C 99 % 1084,6 hPa 0,0 mm W 270 2,5 km/h (1 Bft)
23.08.2011 03:50 17,0 C 99 % 1084,8 hPa 0,0 mm W 275 2,5 km/h (1 Bft)
23.08.2011 03:55 16,9 C 99 % 1084,7 hPa 0,0 mm W-SW 253 2,5 km/h (1 Bft)
23.08.2011 04:00 16,8 C 99 % 1084,7 hPa 0,0 mm SO 135 1,1 km/h (1 Bft)
23.08.2011 04:05 16,8 C 99 % 1084,5 hPa 0,0 mm O 95 1,1 km/h (1 Bft)
23.08.2011 04:10 16,6 C 99 % 1084,6 hPa 0,0 mm O 90 1,1 km/h (1 Bft)
23.08.2011 04:15 16,6 C 99 % 1084,5 hPa 0,0 mm O 90 1,1 km/h (1 Bft)
23.08.2011 04:20 16,6 C 99 % 1084,5 hPa 0,0 mm N 0 0,0 km/h (0 Bft)
23.08.2011 04:25 16,5 C 99 % 1084,7 hPa 0,0 mm SO 135 1,1 km/h (1 Bft)
23.08.2011 04:30 16,5 C 99 % 1084,6 hPa 0,0 mm SO 135 1,1 km/h (1 Bft)
23.08.2011 04:35 16,5 C 99 % 1084,6 hPa 0,0 mm SO 135 1,1 km/h (1 Bft)
23.08.2011 04:40 16,5 C 99 % 1084,7 hPa 0,0 mm SO 127 3,6 km/h (1 Bft)
23.08.2011 04:45 16,5 C 99 % 1084,6 hPa 0,0 mm SO 125 3,6 km/h (1 Bft)
23.08.2011 04:50 16,3 C 99 % 1084,6 hPa 0,0 mm O-SO 118 1,1 km/h (1 Bft)
23.08.2011 04:55 16,2 C 99 % 1084,7 hPa 0,0 mm SO 135 1,1 km/h (1 Bft)
23.08.2011 05:00 16,1 C 99 % 1084,9 hPa 0,0 mm SO 142 2,5 km/h (1 Bft)
23.08.2011 05:05 16,1 C 99 % 1084,8 hPa 0,0 mm SO 140 2,5 km/h (1 Bft)
23.08.2011 05:10 16,1 C 99 % 1084,8 hPa 0,0 mm SO 137 2,5 km/h (1 Bft)
23.08.2011 05:15 16,1 C 99 % 1084,6 hPa 0,0 mm SO 133 2,5 km/h (1 Bft)
23.08.2011 05:20 16,1 C 99 % 1084,8 hPa 0,0 mm SO 125 2,5 km/h (1 Bft)
23.08.2011 05:25 16,1 C 99 % 1084,9 hPa 0,0 mm O-SO 112 2,5 km/h (1 Bft)
23.08.2011 05:30 16,1 C 99 % 1084,9 hPa 0,0 mm SO 135 1,1 km/h (1 Bft)
23.08.2011 05:35 16,1 C 99 % 1084,8 hPa 0,0 mm SO 130 2,5 km/h (1 Bft)
23.08.2011 05:40 16,0 C 99 % 1085,0 hPa 0,0 mm SO 130 2,5 km/h (1 Bft)
23.08.2011 05:45 15,9 C 99 % 1084,8 hPa 0,0 mm SO 135 1,1 km/h (1 Bft)
23.08.2011 05:50 15,8 C 99 % 1084,7 hPa 0,0 mm N 0 0,0 km/h (0 Bft)
23.08.2011 05:55 15,7 C 99 % 1084,7 hPa 0,0 mm SO 135 1,1 km/h (1 Bft)
23.08.2011 06:00 15,6 C 99 % 1084,7 hPa 0,0 mm SO 135 1,1 km/h (1 Bft)
23.08.2011 06:05 15,6 C 99 % 1084,8 hPa 0,0 mm N 0 0,0 km/h (0 Bft)
23.08.2011 06:10 15,7 C 99 % 1084,6 hPa 0,0 mm SO 135 2,5 km/h (1 Bft)
23.08.2011 06:15 15,7 C 99 % 1085,0 hPa 0,0 mm SO 135 2,5 km/h (1 Bft)
23.08.2011 06:20 15,7 C 99 % 1085,0 hPa 0,0 mm SO 135 2,5 km/h (1 Bft)
23.08.2011 06:25 15,7 C 99 % 1084,9 hPa 0,0 mm SO 135 2,5 km/h (1 Bft)
23.08.2011 06:30 15,6 C 99 % 1084,8 hPa 0,0 mm SO 135 2,5 km/h (1 Bft)
23.08.2011 06:35 15,6 C 99 % 1085,0 hPa 0,0 mm SO 135 2,5 km/h (1 Bft)
23.08.2011 06:40 15,6 C 99 % 1084,8 hPa 0,0 mm SO 135 2,5 km/h (1 Bft)
23.08.2011 06:45 15,9 C 99 % 1084,7 hPa 0,0 mm S-SO 159 3,6 km/h (1 Bft)
23.08.2011 06:50 16,2 C 99 % 1084,8 hPa 0,0 mm S-SW 203 3,6 km/h (1 Bft)
23.08.2011 06:55 16,6 C 99 % 1084,5 hPa 0,0 mm SW 225 3,6 km/h (1 Bft)
23.08.2011 07:00 16,9 C 99 % 1084,8 hPa 0,0 mm SW 219 3,6 km/h (1 Bft)
23.08.2011 07:05 17,0 C 99 % 1084,3 hPa 0,0 mm SO 135 2,5 km/h (1 Bft)
23.08.2011 07:10 17,5 C 99 % 1084,6 hPa 0,0 mm SO 135 2,5 km/h (1 Bft)
23.08.2011 07:15 18,0 C 99 % 1084,4 hPa 0,0 mm SO 135 2,5 km/h (1 Bft)
23.08.2011 07:20 18,6 C 99 % 1084,0 hPa 0,0 mm S-SO 167 3,6 km/h (1 Bft)
23.08.2011 07:25 19,1 C 99 % 1083,9 hPa 0,0 mm S-SO 164 3,6 km/h (1 Bft)
23.08.2011 07:30 19,8 C 99 % 1084,0 hPa 0,0 mm S-SO 148 3,6 km/h (1 Bft)
23.08.2011 07:35 20,2 C 96 % 1083,8 hPa 0,0 mm SO 146 2,5 km/h (1 Bft)
23.08.2011 07:40 20,5 C 94 % 1083,7 hPa 0,0 mm S-SO 168 3,6 km/h (1 Bft)
23.08.2011 07:45 20,8 C 93 % 1083,5 hPa 0,0 mm S 187 3,6 km/h (1 Bft)
23.08.2011 07:50 21,0 C 92 % 1083,5 hPa 0,0 mm S-SW 211 3,6 km/h (1 Bft)
23.08.2011 07:55 21,4 C 91 % 1083,5 hPa 0,0 mm SW 225 3,6 km/h (1 Bft)
23.08.2011 08:00 21,6 C 90 % 1083,5 hPa 0,0 mm SW 225 3,6 km/h (1 Bft)
23.08.2011 08:05 21,7 C 90 % 1083,3 hPa 0,0 mm SW 225 2,5 km/h (1 Bft)
23.08.2011 08:10 22,5 C 87 % 1083,0 hPa 0,0 mm SW 225 1,1 km/h (1 Bft)
23.08.2011 08:15 22,9 C 85 % 1083,3 hPa 0,0 mm SW 225 2,5 km/h (1 Bft)
23.08.2011 08:20 23,5 C 84 % 1083,0 hPa 0,0 mm SW 225 3,6 km/h (1 Bft)
23.08.2011 08:25 23,9 C 83 % 1083,1 hPa 0,0 mm SW 225 3,6 km/h (1 Bft)
23.08.2011 08:30 24,3 C 81 % 1082,9 hPa 0,0 mm SW 225 2,5 km/h (1 Bft)
23.08.2011 08:35 24,6 C 81 % 1082,7 hPa 0,0 mm S-SW 207 1,1 km/h (1 Bft)
23.08.2011 08:40 25,0 C 79 % 1082,7 hPa 0,0 mm SO 131 1,1 km/h (1 Bft)
23.08.2011 08:45 25,1 C 78 % 1082,7 hPa 0,0 mm SO 135 1,1 km/h (1 Bft)
23.08.2011 08:50 25,4 C 78 % 1082,6 hPa 0,0 mm SO 135 1,1 km/h (1 Bft)
23.08.2011 08:55 25,7 C 76 % 1082,6 hPa 0,0 mm O-SO 109 1,1 km/h (1 Bft)
23.08.2011 09:00 26,1 C 75 % 1082,3 hPa 0,0 mm O 90 1,1 km/h (1 Bft)
23.08.2011 09:05 26,1 C 74 % 1082,3 hPa 0,0 mm O 90 1,1 km/h (1 Bft)
23.08.2011 09:10 26,6 C 73 % 1082,3 hPa 0,0 mm O 94 1,1 km/h (1 Bft)
23.08.2011 09:15 26,8 C 72 % 1082,2 hPa 0,0 mm O-SO 115 2,5 km/h (1 Bft)
23.08.2011 09:20 26,7 C 71 % 1082,0 hPa 0,0 mm SO 135 3,6 km/h (1 Bft)
23.08.2011 09:25 27,2 C 69 % 1082,1 hPa 0,0 mm SO 135 3,6 km/h (1 Bft)
23.08.2011 09:30 27,6 C 68 % 1081,9 hPa 0,0 mm O 95 2,5 km/h (1 Bft)
23.08.2011 09:35 27,7 C 66 % 1082,2 hPa 0,0 mm O 90 2,5 km/h (1 Bft)
23.08.2011 09:40 27,9 C 67 % 1081,8 hPa 0,0 mm O 90 2,5 km/h (1 Bft)
23.08.2011 09:45 27,8 C 68 % 1082,0 hPa 0,0 mm O 90 2,5 km/h (1 Bft)
23.08.2011 09:50 27,9 C 66 % 1082,1 hPa 0,0 mm O 90 2,5 km/h (1 Bft)
23.08.2011 09:55 28,1 C 64 % 1081,9 hPa 0,0 mm O 90 2,5 km/h (1 Bft)
23.08.2011 10:00 28,7 C 64 % 1081,8 hPa 0,0 mm O 90 1,1 km/h (1 Bft)
23.08.2011 10:05 28,7 C 64 % 1081,9 hPa 0,0 mm O 90 1,1 km/h (1 Bft)
23.08.2011 10:10 28,6 C 65 % 1081,7 hPa 0,0 mm SO 135 1,1 km/h (1 Bft)
23.08.2011 10:15 28,7 C 64 % 1081,8 hPa 0,0 mm SO 135 2,5 km/h (1 Bft)
23.08.2011 10:20 29,2 C 63 % 1081,7 hPa 0,0 mm SO 135 2,5 km/h (1 Bft)
23.08.2011 10:25 29,1 C 64 % 1081,7 hPa 0,0 mm SO 135 5,0 km/h (1 Bft)
23.08.2011 10:30 28,8 C 63 % 1081,7 hPa 0,0 mm SO 135 5,0 km/h (1 Bft)
23.08.2011 10:35 28,6 C 64 % 1081,6 hPa 0,0 mm SO 131 5,0 km/h (1 Bft)
23.08.2011 10:40 28,7 C 65 % 1081,7 hPa 0,0 mm O-SO 121 5,0 km/h (1 Bft)
23.08.2011 10:45 29,2 C 67 % 1081,7 hPa 0,0 mm O-SO 104 5,0 km/h (1 Bft)
23.08.2011 10:50 29,5 C 64 % 1081,5 hPa 0,0 mm O-NO 78 3,6 km/h (1 Bft)
23.08.2011 10:55 29,5 C 64 % 1081,6 hPa 0,0 mm O 90 5,0 km/h (1 Bft)
23.08.2011 11:00 29,4 C 67 % 1081,6 hPa 0,0 mm O-SO 110 5,0 km/h (1 Bft)
23.08.2011 11:05 29,4 C 68 % 1081,5 hPa 0,0 mm O-SO 104 5,0 km/h (1 Bft)
23.08.2011 11:10 29,7 C 65 % 1081,4 hPa 0,0 mm O 90 3,6 km/h (1 Bft)
23.08.2011 11:15 29,7 C 67 % 1081,2 hPa 0,0 mm O 90 5,0 km/h (1 Bft)
23.08.2011 11:20 29,8 C 67 % 1081,6 hPa 0,0 mm O-SO 105 6,1 km/h (2 Bft)
23.08.2011 11:25 30,1 C 68 % 1081,3 hPa 0,0 mm O-SO 110 7,2 km/h (2 Bft)
23.08.2011 11:30 30,9 C 64 % 1081,1 hPa 0,0 mm SW 229 9,7 km/h (2 Bft)
23.08.2011 11:35 31,3 C 62 % 1081,0 hPa 0,0 mm W-SW 239 9,7 km/h (2 Bft)
23.08.2011 11:40 31,5 C 58 % 1081,0 hPa 0,0 mm W 270 13,3 km/h (3 Bft)
23.08.2011 11:45 31,7 C 60 % 1081,0 hPa 0,0 mm W 267 13,3 km/h (3 Bft)
23.08.2011 11:50 31,7 C 59 % 1080,8 hPa 0,0 mm W-SW 250 8,6 km/h (2 Bft)
23.08.2011 11:55 31,8 C 59 % 1081,0 hPa 0,0 mm W-SW 251 9,7 km/h (2 Bft)
23.08.2011 12:00 31,9 C 57 % 1080,8 hPa 0,0 mm W-SW 255 12,2 km/h (2 Bft)
23.08.2011 12:05 31,9 C 58 % 1080,8 hPa 0,0 mm SW 232 12,2 km/h (2 Bft)
23.08.2011 12:10 32,0 C 55 % 1081,0 hPa 0,0 mm S 191 9,7 km/h (2 Bft)
23.08.2011 12:15 32,0 C 53 % 1080,8 hPa 0,0 mm SW 223 13,3 km/h (3 Bft)
23.08.2011 12:20 32,0 C 53 % 1080,8 hPa 0,0 mm W-SW 245 13,3 km/h (3 Bft)
23.08.2011 12:25 32,0 C 53 % 1081,0 hPa 0,0 mm W 266 11,2 km/h (2 Bft)
23.08.2011 12:30 32,1 C 54 % 1080,6 hPa 0,0 mm W 276 9,7 km/h (2 Bft)
23.08.2011 12:35 32,2 C 53 % 1080,5 hPa 0,0 mm W-NW 302 7,2 km/h (2 Bft)
23.08.2011 12:40 32,4 C 51 % 1080,5 hPa 0,0 mm N-NW 335 7,2 km/h (2 Bft)
23.08.2011 12:45 32,4 C 49 % 1080,3 hPa 0,0 mm NW 315 6,1 km/h (2 Bft)
23.08.2011 12:50 32,7 C 51 % 1080,5 hPa 0,0 mm NW 307 7,2 km/h (2 Bft)
23.08.2011 12:55 32,8 C 48 % 1080,4 hPa 0,0 mm W 266 7,2 km/h (2 Bft)
23.08.2011 13:00 33,0 C 45 % 1080,3 hPa 0,0 mm W-SW 250 8,6 km/h (2 Bft)
23.08.2011 13:05 32,9 C 44 % 1080,0 hPa 0,0 mm W 263 8,6 km/h (2 Bft)
23.08.2011 13:10 33,3 C 47 % 1080,1 hPa 0,0 mm W 270 7,2 km/h (2 Bft)
23.08.2011 13:15 33,3 C 42 % 1080,0 hPa 0,0 mm W-NW 284 7,2 km/h (2 Bft)
23.08.2011 13:20 33,4 C 42 % 1080,0 hPa 0,0 mm W 270 7,2 km/h (2 Bft)
23.08.2011 13:25 33,5 C 40 % 1080,0 hPa 0,0 mm W-SW 248 7,2 km/h (2 Bft)
23.08.2011 13:30 33,5 C 39 % 1080,0 hPa 0,0 mm W 265 7,2 km/h (2 Bft)
23.08.2011 13:35 33,6 C 42 % 1079,6 hPa 0,0 mm W-NW 302 7,2 km/h (2 Bft)
23.08.2011 13:40 33,3 C 42 % 1079,6 hPa 0,0 mm N-NW 337 6,1 km/h (2 Bft)
23.08.2011 13:45 33,2 C 44 % 1079,7 hPa 0,0 mm SO 134 8,6 km/h (2 Bft)
23.08.2011 13:50 32,6 C 47 % 1079,8 hPa 0,0 mm SO 138 8,6 km/h (2 Bft)
23.08.2011 13:55 32,5 C 46 % 1079,8 hPa 0,0 mm S-SO 158 7,2 km/h (2 Bft)
23.08.2011 14:00 32,7 C 47 % 1080,0 hPa 0,0 mm S 181 6,1 km/h (2 Bft)
23.08.2011 14:05 32,7 C 45 % 1079,6 hPa 0,0 mm S 181 5,0 km/h (1 Bft)
23.08.2011 14:10 32,7 C 50 % 1079,7 hPa 0,0 mm S 169 5,0 km/h (1 Bft)
23.08.2011 14:15 32,8 C 45 % 1079,6 hPa 0,0 mm O-SO 122 3,6 km/h (1 Bft)
23.08.2011 14:20 33,1 C 49 % 1079,5 hPa 0,0 mm O-SO 107 6,1 km/h (2 Bft)
23.08.2011 14:25 33,0 C 49 % 1079,6 hPa 0,0 mm SO 124 6,1 km/h (2 Bft)
23.08.2011 14:30 32,9 C 52 % 1079,6 hPa 0,0 mm O-SO 121 8,6 km/h (2 Bft)
23.08.2011 14:35 32,8 C 51 % 1079,6 hPa 0,0 mm O-SO 116 8,6 km/h (2 Bft)
23.08.2011 14:40 33,1 C 47 % 1079,4 hPa 0,0 mm O-SO 106 8,6 km/h (2 Bft)
23.08.2011 14:45 33,7 C 44 % 1079,3 hPa 0,0 mm O 86 6,1 km/h (2 Bft)
23.08.2011 14:50 33,4 C 46 % 1079,5 hPa 0,0 mm SO 142 7,2 km/h (2 Bft)
23.08.2011 14:55 33,1 C 50 % 1079,2 hPa 0,0 mm SO 124 7,2 km/h (2 Bft)
23.08.2011 15:00 32,9 C 52 % 1079,4 hPa 0,0 mm O-SO 107 6,1 km/h (2 Bft)
23.08.2011 15:05 32,9 C 50 % 1079,2 hPa 0,0 mm O-SO 120 6,1 km/h (2 Bft)
23.08.2011 15:10 32,9 C 45 % 1079,3 hPa 0,0 mm SO 135 6,1 km/h (2 Bft)
23.08.2011 15:15 33,1 C 44 % 1079,1 hPa 0,0 mm SO 132 6,1 km/h (2 Bft)
23.08.2011 15:20 33,3 C 42 % 1079,1 hPa 0,0 mm SO 129 6,1 km/h (2 Bft)
23.08.2011 15:25 33,3 C 41 % 1079,2 hPa 0,0 mm SO 128 6,1 km/h (2 Bft)
23.08.2011 15:30 33,3 C 43 % 1079,0 hPa 0,0 mm SO 125 6,1 km/h (2 Bft)
23.08.2011 15:35 33,2 C 44 % 1079,1 hPa 0,0 mm O-SO 122 6,1 km/h (2 Bft)
23.08.2011 15:40 33,0 C 43 % 1079,0 hPa 0,0 mm SO 129 6,1 km/h (2 Bft)
23.08.2011 15:45 33,1 C 43 % 1079,0 hPa 0,0 mm SO 133 6,1 km/h (2 Bft)
23.08.2011 15:50 33,0 C 44 % 1079,3 hPa 0,0 mm O-SO 118 6,1 km/h (2 Bft)
23.08.2011 15:55 33,0 C 46 % 1079,0 hPa 0,0 mm O-SO 106 5,0 km/h (1 Bft)
23.08.2011 16:00 32,9 C 48 % 1079,0 hPa 0,0 mm O-SO 107 5,0 km/h (1 Bft)
23.08.2011 16:05 32,8 C 46 % 1079,0 hPa 0,0 mm O 98 5,0 km/h (1 Bft)
23.08.2011 16:10 32,5 C 38 % 1079,0 hPa 0,0 mm O 93 6,1 km/h (2 Bft)
23.08.2011 16:15 32,4 C 36 % 1079,2 hPa 0,0 mm O-NO 78 8,6 km/h (2 Bft)
23.08.2011 16:20 32,5 C 38 % 1079,1 hPa 0,0 mm O-NO 73 11,2 km/h (2 Bft)
23.08.2011 16:25 32,6 C 37 % 1079,1 hPa 0,0 mm NO 52 11,2 km/h (2 Bft)
23.08.2011 16:30 32,7 C 37 % 1079,0 hPa 0,0 mm NO 41 9,7 km/h (2 Bft)
23.08.2011 16:35 32,8 C 35 % 1078,9 hPa 0,0 mm NO 45 9,7 km/h (2 Bft)
23.08.2011 16:40 32,9 C 34 % 1078,7 hPa 0,0 mm NO 38 9,7 km/h (2 Bft)
23.08.2011 16:45 33,0 C 34 % 1078,8 hPa 0,0 mm N-NO 27 7,2 km/h (2 Bft)
23.08.2011 16:50 33,1 C 37 % 1078,8 hPa 0,0 mm N-NO 23 7,2 km/h (2 Bft)
23.08.2011 16:55 33,0 C 37 % 1079,0 hPa 0,0 mm NO 39 7,2 km/h (2 Bft)
23.08.2011 17:00 33,0 C 37 % 1078,8 hPa 0,0 mm NO 45 7,2 km/h (2 Bft)
23.08.2011 17:05 32,9 C 37 % 1078,8 hPa 0,0 mm N-NO 21 7,2 km/h (2 Bft)
23.08.2011 17:10 32,6 C 45 % 1078,8 hPa 0,0 mm N 5 6,1 km/h (2 Bft)
23.08.2011 17:15 32,1 C 47 % 1078,9 hPa 0,0 mm NO 42 6,1 km/h (2 Bft)
23.08.2011 17:20 31,8 C 51 % 1079,1 hPa 0,0 mm O-SO 116 5,0 km/h (1 Bft)
23.08.2011 17:25 31,8 C 47 % 1079,1 hPa 0,0 mm O-SO 121 3,6 km/h (1 Bft)
23.08.2011 17:30 32,0 C 42 % 1079,0 hPa 0,0 mm NO 56 9,7 km/h (2 Bft)
23.08.2011 17:35 32,0 C 46 % 1078,9 hPa 0,0 mm O-NO 58 9,7 km/h (2 Bft)
23.08.2011 17:40 31,7 C 48 % 1078,9 hPa 0,0 mm O-NO 73 9,7 km/h (2 Bft)
23.08.2011 17:45 31,3 C 48 % 1079,0 hPa 0,0 mm O-SO 103 6,1 km/h (2 Bft)
23.08.2011 17:50 31,3 C 48 % 1079,2 hPa 0,0 mm SO 135 5,0 km/h (1 Bft)
23.08.2011 17:55 31,2 C 52 % 1079,2 hPa 0,0 mm SO 135 3,6 km/h (1 Bft)
23.08.2011 18:00 31,2 C 51 % 1079,0 hPa 0,0 mm O-SO 116 3,6 km/h (1 Bft)
23.08.2011 18:05 31,2 C 51 % 1079,0 hPa 0,0 mm O 90 5,0 km/h (1 Bft)
23.08.2011 18:10 31,1 C 55 % 1078,9 hPa 0,0 mm O 88 5,0 km/h (1 Bft)
23.08.2011 18:15 30,9 C 54 % 1079,0 hPa 0,0 mm O 90 5,0 km/h (1 Bft)
23.08.2011 18:20 30,6 C 56 % 1079,1 hPa 0,0 mm O 90 2,5 km/h (1 Bft)
23.08.2011 18:25 30,3 C 57 % 1079,1 hPa 0,0 mm O-SO 116 3,6 km/h (1 Bft)
23.08.2011 18:30 30,1 C 58 % 1079,3 hPa 0,0 mm SO 129 3,6 km/h (1 Bft)
23.08.2011 18:35 29,9 C 60 % 1079,3 hPa 0,0 mm SO 135 3,6 km/h (1 Bft)
23.08.2011 18:40 29,7 C 58 % 1079,2 hPa 0,0 mm SO 135 3,6 km/h (1 Bft)
23.08.2011 18:45 29,6 C 60 % 1079,2 hPa 0,0 mm SO 135 2,5 km/h (1 Bft)
23.08.2011 18:50 29,5 C 64 % 1079,3 hPa 0,0 mm SO 135 1,1 km/h (1 Bft)
23.08.2011 18:55 29,1 C 64 % 1079,3 hPa 0,0 mm SO 135 3,6 km/h (1 Bft)
23.08.2011 19:00 28,7 C 66 % 1079,5 hPa 0,0 mm SO 135 3,6 km/h (1 Bft)
23.08.2011 19:05 28,7 C 66 % 1079,4 hPa 0,0 mm SO 135 2,5 km/h (1 Bft)
23.08.2011 19:10 28,7 C 68 % 1079,4 hPa 0,0 mm SO 135 3,6 km/h (1 Bft)
23.08.2011 19:15 28,6 C 67 % 1079,7 hPa 0,0 mm SO 135 3,6 km/h (1 Bft)
23.08.2011 19:20 28,1 C 71 % 1079,8 hPa 0,0 mm SO 135 3,6 km/h (1 Bft)
23.08.2011 19:25 27,7 C 72 % 1079,7 hPa 0,0 mm SO 135 2,5 km/h (1 Bft)
23.08.2011 19:30 27,4 C 73 % 1079,9 hPa 0,0 mm SO 135 2,5 km/h (1 Bft)
23.08.2011 19:35 27,0 C 72 % 1080,0 hPa 0,0 mm SO 135 1,1 km/h (1 Bft)
23.08.2011 19:40 26,7 C 73 % 1080,2 hPa 0,0 mm SO 135 1,1 km/h (1 Bft)
23.08.2011 19:45 26,4 C 75 % 1080,2 hPa 0,0 mm SO 135 3,6 km/h (1 Bft)
23.08.2011 19:50 25,8 C 76 % 1080,4 hPa 0,0 mm SO 135 3,6 km/h (1 Bft)
23.08.2011 19:55 25,6 C 77 % 1080,6 hPa 0,0 mm SO 135 3,6 km/h (1 Bft)
23.08.2011 20:00 25,3 C 78 % 1080,7 hPa 0,0 mm SO 135 5,0 km/h (1 Bft)
23.08.2011 20:05 25,2 C 78 % 1080,5 hPa 0,0 mm SO 135 5,0 km/h (1 Bft)
23.08.2011 20:10 24,5 C 80 % 1080,9 hPa 0,0 mm N 0 0,0 km/h (0 Bft)
23.08.2011 20:15 24,3 C 81 % 1080,7 hPa 0,0 mm N 0 0,0 km/h (0 Bft)
23.08.2011 20:20 24,0 C 82 % 1080,8 hPa 0,0 mm N 0 0,0 km/h (0 Bft)
23.08.2011 20:25 23,9 C 81 % 1080,9 hPa 0,0 mm N 0 0,0 km/h (0 Bft)
23.08.2011 20:30 23,7 C 82 % 1081,0 hPa 0,0 mm N 0 0,0 km/h (0 Bft)
23.08.2011 20:35 23,5 C 82 % 1081,2 hPa 0,0 mm N 0 0,0 km/h (0 Bft)
23.08.2011 20:40 23,3 C 83 % 1081,2 hPa 0,0 mm N 0 0,0 km/h (0 Bft)
23.08.2011 20:45 22,9 C 84 % 1081,4 hPa 0,0 mm N 0 0,0 km/h (0 Bft)
23.08.2011 20:50 22,8 C 85 % 1081,3 hPa 0,0 mm SO 135 2,5 km/h (1 Bft)
23.08.2011 20:55 22,4 C 84 % 1081,6 hPa 0,0 mm SO 135 2,5 km/h (1 Bft)
23.08.2011 21:00 22,3 C 85 % 1081,6 hPa 0,0 mm SO 135 2,5 km/h (1 Bft)
23.08.2011 21:05 22,3 C 85 % 1081,7 hPa 0,0 mm SO 135 1,1 km/h (1 Bft)
23.08.2011 21:10 22,2 C 87 % 1081,7 hPa 0,0 mm S 181 1,1 km/h (1 Bft)
23.08.2011 21:15 22,2 C 87 % 1081,7 hPa 0,0 mm S 181 3,6 km/h (1 Bft)
23.08.2011 21:20 22,1 C 87 % 1081,8 hPa 0,0 mm S 181 3,6 km/h (1 Bft)
23.08.2011 21:25 21,9 C 87 % 1081,9 hPa 0,0 mm S 181 1,1 km/h (1 Bft)
23.08.2011 21:30 21,7 C 88 % 1081,8 hPa 0,0 mm S 181 1,1 km/h (1 Bft)
23.08.2011 21:35 21,7 C 88 % 1081,8 hPa 0,0 mm S 181 3,6 km/h (1 Bft)
23.08.2011 21:40 21,6 C 89 % 1082,0 hPa 0,0 mm S 181 3,6 km/h (1 Bft)
23.08.2011 21:45 21,5 C 90 % 1082,0 hPa 0,0 mm S 181 2,5 km/h (1 Bft)
23.08.2011 21:50 21,5 C 90 % 1081,7 hPa 0,0 mm S 181 2,5 km/h (1 Bft)
23.08.2011 21:55 21,5 C 89 % 1082,1 hPa 0,0 mm S 181 2,5 km/h (1 Bft)
23.08.2011 22:00 21,4 C 89 % 1082,0 hPa 0,0 mm S 181 1,1 km/h (1 Bft)
23.08.2011 22:05 21,4 C 89 % 1082,0 hPa 0,0 mm S 181 1,1 km/h (1 Bft)
23.08.2011 22:10 21,2 C 90 % 1081,9 hPa 0,0 mm S 181 1,1 km/h (1 Bft)
23.08.2011 22:15 20,9 C 91 % 1082,0 hPa 0,0 mm S 181 1,1 km/h (1 Bft)
23.08.2011 22:20 20,7 C 91 % 1082,1 hPa 0,0 mm S 181 1,1 km/h (1 Bft)
23.08.2011 22:25 20,7 C 92 % 1082,3 hPa 0,0 mm N 0 0,0 km/h (0 Bft)
23.08.2011 22:30 20,5 C 92 % 1082,3 hPa 0,0 mm N 0 0,0 km/h (0 Bft)
23.08.2011 22:35 20,4 C 93 % 1082,4 hPa 0,0 mm S 181 2,5 km/h (1 Bft)
23.08.2011 22:40 20,4 C 94 % 1082,3 hPa 0,0 mm S 181 2,5 km/h (1 Bft)
23.08.2011 22:45 20,4 C 94 % 1082,4 hPa 0,0 mm S 181 1,1 km/h (1 Bft)
23.08.2011 22:50 20,3 C 94 % 1082,4 hPa 0,0 mm N 0 0,0 km/h (0 Bft)
23.08.2011 22:55 20,2 C 93 % 1082,4 hPa 0,0 mm S 181 3,6 km/h (1 Bft)
23.08.2011 23:00 20,1 C 94 % 1082,2 hPa 0,0 mm S 181 3,6 km/h (1 Bft)
23.08.2011 23:05 20,1 C 94 % 1082,4 hPa 0,0 mm S 181 3,6 km/h (1 Bft)
23.08.2011 23:10 19,9 C 94 % 1082,4 hPa 0,0 mm N 0 0,0 km/h (0 Bft)
23.08.2011 23:15 19,7 C 94 % 1082,6 hPa 0,0 mm N 0 0,0 km/h (0 Bft)
23.08.2011 23:20 19,6 C 95 % 1082,4 hPa 0,0 mm N 0 0,0 km/h (0 Bft)
23.08.2011 23:25 19,5 C 95 % 1082,5 hPa 0,0 mm N 0 0,0 km/h (0 Bft)
23.08.2011 23:30 19,4 C 96 % 1082,5 hPa 0,0 mm N 0 0,0 km/h (0 Bft)
23.08.2011 23:35 19,5 C 95 % 1082,6 hPa 0,0 mm S 181 2,5 km/h (1 Bft)
23.08.2011 23:40 19,5 C 96 % 1082,6 hPa 0,0 mm S 181 2,5 km/h (1 Bft)
23.08.2011 23:45 19,4 C 96 % 1082,7 hPa 0,0 mm S 181 1,1 km/h (1 Bft)
23.08.2011 23:50 19,3 C 96 % 1082,6 hPa 0,0 mm S 181 1,1 km/h (1 Bft)
23.08.2011 23:55 19,2 C 96 % 1082,6 hPa 0,0 mm S 181 1,1 km/h (1 Bft)
_ Min-Zeit 06:00 16:40 16:40 - - - 01:50
Minimum _ 15,6 C 34 % 1078,7 hPa - - - 0,0 km/h (0 Bft)
_ Max-Zeit 14:45 00:00 00:35 00:00 - - 11:40
Maximum _ 33,7 C 99 % 1085,2 hPa 0,0 mm - - 13,3 km/h
W (3 Bft)
Durchschnitt _ 24,7 C 76 % 1082,0 hPa #0,0 mm SO - 3,9 km/h (1 Bft)